STARLINK-32857, 62949

Orbit data source: Space-Track

STARLINK-32857, 62949 is a payload satellite owned by SpaceX/Seattle (US) in LEO that was launched on Tue, 11 Feb 2025 UTC via an FALCON 9 launch vehicle from the Air Force Western Test Range (AFWTR). Payload-class satellites include a variety of spacecraft equipped with specific instruments for various scientific and technological missions. These include communications satellites like Starlink; space stations such as the ISS; scientific satellites like the Hubble; Earth observation satellites from companies like Planet Labs, Umbra, and HawkEye 360; GPS; miniature CubeSats for education and research; and military/defense satellites.

Loading next visibility...
Identifier
62949, 2025-029B
Orbit
LEO
Country
Flag of USUS
Related business
Manufacturer
SpaceX/Seattle
Mission
Operational Commercial Communications
Bus & Motor
STARLINK V2M, Unknown motor
Mass
730 kg wet, ~700 kg dry
Launch date (UTC)
2025-02-11 (1 year ago)
Launch vehicle
FALCON 9
Launch site
Air Force Western Test Range (AFWTR)
Object type
Payload
Rocket body
Debris
Shape & HBR
Box + 2 Pan, 17.7 m
Radar Cross Section
33.884 m², Large (>1 m²)

Expand to show TLE details & history
Last TLE update: 15 hours ago

TLE from 15 hours ago
0 STARLINK-32857
1 62949U 25029B   26171.21652906  .00028261  00000-0  84393-3 0  9995
2 62949  53.1592 112.7858 0000920 101.9898 258.1207 15.34417524 77102
Epoch: 2026-06-20T05:11Z
TLE epoch observation values (Epoch: 2026-06-20T05:11:48.110Z)
Latitude
-0.0001°
Longitude
126.40094°
Altitude
463.682 km
Speed
7.636 km/s
True Right ascension
07h 31m 08s
True Declination
0° 00' 00"
Sunlit
Object was in daylight at epoch
Visualization orbit readout
Latitude
Unknown
Longitude
Unknown
Altitude
Unknown
Speed
Unknown
Apparent Right ascension
Unknown
Apparent Declination
Unknown
Sunlit
N/A
Visualization observer readout
Local Sidereal Time
07:16:36
Azimuth
Unknown
Elevation
Unknown
Doppler factor
Unknown
Orbital elements
Apogee altitude
463.538 km
Perigee altitude
462.279 km
Semi-major axis
6,841.045 km
Eccentricity
0.00009
Inclination
53.1592°
RAAN
112.7858°
Arg. of periapsis
101.9898°
True anomaly
258.11038°
Mean anomaly
258.1207°
Eccentric anomaly
258.11554°
Mean motion
3.83583 °/min
Orbital period
93.85 mins
BSTAR
0.00084393
Loading maneuver chart data...
Computing Atmospheric mass density...
Loading historical data...
Loading historical data...
Loading historical data...
Loading historical data...
Loading historical data...
Loading historical data...
Loading historical data...

Documentation

Showing up to 5 results
|